Погода в Нью-Йорке

США     40°42′57″N   74°00′10″W
В апреле 2022 года жителям России запретили посещать сайт meteo.paraplan.net по решению Генеральной прокуратуры. Аудитория сайта уменьшилась в 10 раз. Владельцы сайта не видят смысла в поддержке погодного сервера в таких условиях. Сайт будет закрыт в октябре.
темп.,
°C
ветер,
м/с
пор.,
м/с
влажн.,
%
обл.,
%
осадки,
мм/ч
давл.,
гПа
погр.,
м
4 октября, вт
вт423:00+10ссв71377100 2.3 1021811
02:00+9ссв71377100 3.7 1020776
05:00+9ссв71587100 8.8 1017812
08:00+10ссв71487100 17.5 1017924
11:00+10ссв71488100 0.8 1017878
14:00+12ссв71490100 1.7 1014875
17:00+13ссв71489100 1.4 1014872
20:00+13ссв71391100 2.1 1014841
5 октября, ср
ср523:00+13ссв71391100 1.1 1014737
02:00+14ссв61393100 2.5 1013768
05:00+14ссв61393100 4.8 1012826
08:00+13ссв61393100 11.4 1013734
11:00+14ссв61291100 2.9 1014811
14:00+14ссв61188100 3.8 1014744
17:00+14ссв41188100 0.2 1014642
20:00+14с3789100 0.3 1015464
6 октября, чт
чт623:00+14ссз248877 0.0 1015186
02:00+14ссз248377 0.0 1015174
05:00+13с24780 0.0 1015108
08:00+13ссз13755 0.0 101699
11:00+18зсз124941 0.0 1016392
14:00+22юз2233100 0.0 1015869
17:00+21ююз3441100 0.0 1014505
20:00+18ю3465100 0.0 1015167
7 октября, пт
пт723:00+17юз2664100 0.0 1014189
02:00+16юз377020 0.0 1014246
05:00+15зюз37765 0.0 1013233
08:00+15зюз367317 0.0 1014193
11:00+21зюз46485 0.0 1013570
14:00+24юз69379 0.0 10111547
17:00+21зсз895047 0.0 10121326
20:00+13сз7115796 0.0 1016777
8 октября, сб
сб823:00+10сз710531 0.0 1018949
02:00+9сз610505 0.0 10201107
05:00+8сз510520 0.0 10211097
08:00+8зсз510502 0.0 10221012
11:00+11сз57435 0.0 10221417
14:00+14зсз57303 0.0 10201782
17:00+15зсз57314 0.0 10191813
20:00+13зюз25400 0.0 1021521